Montoursville, PA

3:38 PM EST on January 18, 2017 (GMT -0500)
Williamsport Rgnl

Weather History for KIPT - November, 2014

Change the Weather History Date:

Thursday, November 13, 2014

  Actual Average Record
Temperature  
Mean Temperature 35 °F 43 °F  
Max Temperature 42 °F 51 °F 72 °F (1902)
Min Temperature 28 °F 34 °F 18 °F (1911)
Degree Days  
Heating Degree Days 30 22  
Month to date heating degree days 255 265  
Since 1 July heating degree days 643 808  
Cooling Degree Days 0 0  
Month to date cooling degree days 0 0  
Year to date cooling degree days 713 702  
Moisture  
Dew Point 26 °F    
Average Humidity 65    
Maximum Humidity 78    
Minimum Humidity 51    
Precipitation  
Precipitation T in 0.11 in 2.62 in (1937)
Month to date precipitation 0.15 1.47  
Year to date precipitation 32.56 36.08  
Snow  
Snow T in 0.10 in 2.30 in (1997)
Month to date snowfall T 0.5  
Since 1 July snowfall T 0.6  
Since 1 September snowfall T 0.6  
Snow Depth 0.00 in    
Sea Level Pressure  
Sea Level Pressure 30.09 in    
Wind  
Wind Speed 5 mph (West)    
Max Wind Speed 15 mph    
Max Gust Speed 19 mph    
Visibility 10 miles    
Events Snow    
T = Trace of Precipitation, MM = Missing Value Source: NWS Daily Summary

Daily Weather History Graph

Daily Weather History Graph

Search for Another Location

Airport or City:

Trip Planner

Search our weather history database for the weather conditions in past years. The results will help you decide how hot, cold, wet, or windy it might be!

Date:

Astronomy

Nov. 13, 2014 Rise Set
Actual Time 6:53 AM EST 4:50 PM EST
Civil Twilight 6:23 AM EST 5:19 PM EST
Nautical Twilight 5:50 AM EST 5:52 PM EST
Astronomical Twilight 5:18 AM EST 6:25 PM EST
Moon 11:05 PM EST (11/13) 12:11 PM EST (11/13)
Length of Visible Light 10h 55m
Length of Day
9h 56m
Waning Gibbous, 59% of the Moon is Illuminated
Nov 13
Waning Gibbous
Nov 14
Last Quarter
Nov 22
New
Nov 29
First Quarter
Dec 6
Full

Hourly Weather History & Observations

Time (EST) Temp. Windchill Dew Point Humidity Pressure Visibility Wind Dir Wind Speed Gust Speed Precip Events Conditions
12:54 AM 33.1 °F 30.0 °F 25.0 °F 72% 30.14 in 10.0 mi West 3.5 mph - N/A   Partly Cloudy
1:54 AM 32.0 °F - 24.1 °F 73% 30.14 in 10.0 mi Calm Calm - N/A   Overcast
2:54 AM 30.0 °F 26.5 °F 24.1 °F 79% 30.14 in 10.0 mi NNW 3.5 mph - N/A   Clear
3:54 AM 28.9 °F - 23.0 °F 78% 30.15 in 10.0 mi Calm Calm - N/A   Clear
4:54 AM 30.0 °F - 24.1 °F 79% 30.15 in 10.0 mi Calm Calm - N/A   Overcast
5:54 AM 30.9 °F - 25.0 °F 79% 30.14 in 10.0 mi Calm Calm - N/A   Overcast
6:54 AM 32.0 °F - 25.0 °F 75% 30.14 in 10.0 mi Calm Calm - N/A   Overcast
7:54 AM 33.1 °F - 27.0 °F 78% 30.15 in 10.0 mi Calm Calm - N/A   Mostly Cloudy
8:54 AM 35.1 °F - 28.9 °F 78% 30.14 in 10.0 mi Calm Calm - N/A   Overcast
9:54 AM 39.0 °F 34.8 °F 28.0 °F 65% 30.13 in 10.0 mi West 5.8 mph - N/A   Scattered Clouds
10:54 AM 39.9 °F 34.5 °F 25.0 °F 55% 30.11 in 10.0 mi WSW 8.1 mph - N/A   Overcast
11:54 AM 41.0 °F 36.4 °F 25.0 °F 53% 30.09 in 10.0 mi West 6.9 mph - N/A   Overcast
12:54 PM 41.0 °F 35.8 °F 25.0 °F 53% 30.07 in 10.0 mi West 8.1 mph - N/A   Overcast
1:54 PM 41.0 °F 36.4 °F 26.1 °F 55% 30.04 in 10.0 mi West 6.9 mph - N/A   Overcast
2:54 PM 39.9 °F 35.1 °F 26.1 °F 58% 30.04 in 10.0 mi West 6.9 mph - N/A   Overcast
3:54 PM 39.9 °F 33.9 °F 26.1 °F 58% 30.04 in 10.0 mi West 9.2 mph - N/A   Overcast
4:54 PM 39.0 °F 33.4 °F 26.1 °F 60% 30.03 in 10.0 mi WSW 8.1 mph - N/A   Overcast
5:54 PM 39.0 °F 33.4 °F 27.0 °F 62% 30.04 in 10.0 mi West 8.1 mph - N/A   Overcast
6:54 PM 37.9 °F 30.9 °F 27.0 °F 65% 30.05 in 10.0 mi West 10.4 mph - N/A   Overcast
7:54 PM 37.9 °F 32.1 °F 27.0 °F 65% 30.05 in 10.0 mi West 8.1 mph - N/A   Overcast
8:54 PM 37.0 °F 31.6 °F 27.0 °F 67% 30.05 in 10.0 mi West 6.9 mph - 0.00 in   Mostly Cloudy
9:54 PM 37.0 °F 29.8 °F 27.0 °F 67% 30.06 in 10.0 mi West 10.4 mph - N/A   Overcast
10:54 PM 36.0 °F 29.0 °F 24.1 °F 62% 30.06 in 9.0 mi NNW 9.2 mph - 0.00 in Snow Light Snow
11:54 PM 36.0 °F 30.3 °F 23.0 °F 59% 30.06 in 10.0 mi WNW 6.9 mph - 0.00 in   Overcast